Time,TemperatureF,DewpointF,PressureIn,WindDirection,WindDirectionDegrees,WindSpeedMPH,WindSpeedGustMPH,Humidity,HourlyPrecipIn,Conditions,Clouds,dailyrainin,SolarRadiationWatts/m^2,SoftwareType,DateUTC
2013-01-30 00:02:00,64.1,62.0,30.06,North,350,1.0,3.0,91,0.00,,,0.00,0.0,oem by Ross Wheeler,2013-01-30 05:02:00,
2013-01-30 00:06:00,64.3,61.0,30.06,SE,130,1.0,7.0,90,0.00,,,0.00,0.0,oem by Ross Wheeler,2013-01-30 05:06:00,
2013-01-30 00:11:00,64.5,61.0,30.06,SSE,149,0.0,7.0,89,0.00,,,0.00,0.0,oem by Ross Wheeler,2013-01-30 05:11:00,
2013-01-30 00:16:00,64.3,61.0,30.05,North,355,2.0,4.0,90,0.00,,,0.00,0.0,oem by Ross Wheeler,2013-01-30 05:16:00,
2013-01-30 00:26:00,64.0,61.0,30.05,South,187,1.0,4.0,90,0.00,,,0.00,0.0,oem by Ross Wheeler,2013-01-30 05:26:00,
2013-01-30 00:31:00,63.8,61.0,30.04,South,188,3.0,3.0,91,0.00,,,0.00,0.0,oem by Ross Wheeler,2013-01-30 05:31:00,
2013-01-30 00:41:00,64.2,62.0,30.05,SE,126,1.0,6.0,91,0.00,,,0.00,0.0,oem by Ross Wheeler,2013-01-30 05:41:00,
2013-01-30 00:46:00,63.8,62.0,30.04,South,173,3.0,3.0,92,0.00,,,0.00,0.0,oem by Ross Wheeler,2013-01-30 05:46:00,
2013-01-30 00:56:00,63.8,61.0,30.04,South,184,0.0,5.0,91,0.00,,,0.00,0.0,oem by Ross Wheeler,2013-01-30 05:56:00,
2013-01-30 01:01:00,63.5,61.0,30.04,SSE,155,0.0,5.0,92,0.00,,,0.00,0.0,oem by Ross Wheeler,2013-01-30 06:01:00,
2013-01-30 01:11:00,63.7,62.0,30.04,SSW,193,0.0,4.0,93,0.00,,,0.00,0.0,oem by Ross Wheeler,2013-01-30 06:11:00,
2013-01-30 01:16:00,63.4,61.0,30.04,SSW,198,0.0,4.0,93,0.00,,,0.00,0.0,oem by Ross Wheeler,2013-01-30 06:16:00,
2013-01-30 01:26:00,63.3,61.0,30.04,South,188,0.0,3.0,93,0.00,,,0.00,0.0,oem by Ross Wheeler,2013-01-30 06:26:00,
2013-01-30 01:31:00,63.2,62.0,30.04,SSE,165,1.0,3.0,94,0.00,,,0.00,0.0,oem by Ross Wheeler,2013-01-30 06:31:00,
2013-01-30 01:41:00,63.0,62.0,30.04,South,182,0.0,3.0,95,0.00,,,0.00,0.0,oem by Ross Wheeler,2013-01-30 06:41:00,
2013-01-30 01:46:00,62.4,61.0,30.04,WSW,250,0.0,3.0,94,0.00,,,0.00,0.0,oem by Ross Wheeler,2013-01-30 06:46:00,
2013-01-30 01:56:00,61.8,60.0,30.04,WSW,250,1.0,2.0,95,0.00,,,0.00,0.0,oem by Ross Wheeler,2013-01-30 06:56:00,
2013-01-30 02:01:00,61.6,61.0,30.04,WSW,250,0.0,2.0,96,0.00,,,0.00,0.0,oem by Ross Wheeler,2013-01-30 07:01:00,
2013-01-30 02:11:00,61.9,61.0,30.03,SSW,206,1.0,2.0,96,0.00,,,0.00,0.0,oem by Ross Wheeler,2013-01-30 07:11:00,
2013-01-30 02:16:00,61.9,61.0,30.03,SSW,206,0.0,2.0,97,0.00,,,0.00,0.0,oem by Ross Wheeler,2013-01-30 07:16:00,
2013-01-30 02:26:00,61.7,61.0,30.02,ESE,114,1.0,2.0,96,0.00,,,0.00,0.0,oem by Ross Wheeler,2013-01-30 07:26:00,
2013-01-30 02:31:00,62.3,62.0,30.01,SE,127,0.0,2.0,97,0.00,,,0.00,0.0,oem by Ross Wheeler,2013-01-30 07:31:00,
2013-01-30 02:41:00,62.4,62.0,30.01,SE,140,0.0,2.0,97,0.00,,,0.00,0.0,oem by Ross Wheeler,2013-01-30 07:41:00,
2013-01-30 02:46:00,62.6,62.0,30.01,North,355,1.0,2.0,97,0.00,,,0.00,0.0,oem by Ross Wheeler,2013-01-30 07:46:00,
2013-01-30 02:56:00,62.8,62.0,30.01,NE,46,0.0,2.0,96,0.00,,,0.00,0.0,oem by Ross Wheeler,2013-01-30 07:56:00,
2013-01-30 03:01:00,62.8,62.0,30.00,NW,311,1.0,3.0,96,0.00,,,0.00,0.0,oem by Ross Wheeler,2013-01-30 08:01:00,
2013-01-30 03:11:00,63.4,62.0,30.00,West,277,1.0,2.0,96,0.00,,,0.00,0.0,oem by Ross Wheeler,2013-01-30 08:11:00,
2013-01-30 03:16:00,63.6,63.0,30.00,West,280,3.0,3.0,96,0.00,,,0.00,0.0,oem by Ross Wheeler,2013-01-30 08:16:00,
2013-01-30 03:26:00,64.1,63.0,30.00,East,90,1.0,5.0,95,0.00,,,0.00,0.0,oem by Ross Wheeler,2013-01-30 08:26:00,
2013-01-30 03:31:00,64.4,63.0,29.99,SSW,197,0.0,5.0,95,0.00,,,0.00,0.0,oem by Ross Wheeler,2013-01-30 08:31:00,
2013-01-30 03:41:00,64.6,63.0,29.98,SSW,204,1.0,9.0,95,0.00,,,0.00,0.0,oem by Ross Wheeler,2013-01-30 08:41:00,
2013-01-30 03:46:00,64.7,63.0,29.98,South,175,3.0,4.0,94,0.00,,,0.00,0.0,oem by Ross Wheeler,2013-01-30 08:46:00,
2013-01-30 03:56:00,64.9,63.0,29.98,SSE,164,3.0,3.0,94,0.00,,,0.00,0.0,oem by Ross Wheeler,2013-01-30 08:56:00,
2013-01-30 04:01:00,65.0,63.0,29.98,NE,46,1.0,5.0,94,0.00,,,0.00,0.0,oem by Ross Wheeler,2013-01-30 09:01:00,
2013-01-30 04:11:00,65.1,63.0,29.97,SW,217,1.0,6.0,93,0.00,,,0.00,0.0,oem by Ross Wheeler,2013-01-30 09:11:00,
2013-01-30 04:16:00,65.2,63.0,29.97,North,5,2.0,6.0,93,0.00,,,0.00,0.0,oem by Ross Wheeler,2013-01-30 09:16:00,
2013-01-30 04:26:00,65.4,63.0,29.96,SSE,150,1.0,10.0,93,0.00,,,0.00,0.0,oem by Ross Wheeler,2013-01-30 09:26:00,
2013-01-30 04:31:00,65.5,64.0,29.96,SSE,168,1.0,6.0,93,0.00,,,0.00,0.0,oem by Ross Wheeler,2013-01-30 09:31:00,
2013-01-30 04:41:00,65.5,63.0,29.96,ENE,65,1.0,6.0,92,0.00,,,0.00,0.0,oem by Ross Wheeler,2013-01-30 09:41:00,
2013-01-30 04:46:00,65.5,63.0,29.96,West,261,2.0,5.0,92,0.00,,,0.00,0.0,oem by Ross Wheeler,2013-01-30 09:46:00,
2013-01-30 04:56:00,65.6,63.0,29.95,ENE,67,7.0,8.0,92,0.00,,,0.00,0.0,oem by Ross Wheeler,2013-01-30 09:56:00,
2013-01-30 05:01:00,65.7,63.0,29.95,SSE,158,2.0,7.0,92,0.00,,,0.00,0.0,oem by Ross Wheeler,2013-01-30 10:01:00,
2013-01-30 05:11:00,65.8,64.0,29.94,West,271,1.0,7.0,92,0.00,,,0.00,0.0,oem by Ross Wheeler,2013-01-30 10:11:00,
2013-01-30 05:16:00,65.7,63.0,29.93,SE,141,5.0,9.0,92,0.00,,,0.00,0.0,oem by Ross Wheeler,2013-01-30 10:16:00,
2013-01-30 05:26:00,65.7,63.0,29.93,ESE,119,0.0,4.0,92,0.00,,,0.00,0.0,oem by Ross Wheeler,2013-01-30 10:26:00,
2013-01-30 05:31:00,65.6,63.0,29.93,South,187,1.0,5.0,92,0.00,,,0.00,0.0,oem by Ross Wheeler,2013-01-30 10:31:00,
2013-01-30 05:41:00,65.6,63.0,29.93,ENE,67,1.0,5.0,92,0.00,,,0.00,0.0,oem by Ross Wheeler,2013-01-30 10:41:00,
2013-01-30 05:46:00,65.5,63.0,29.94,WNW,302,0.0,5.0,92,0.00,,,0.00,0.0,oem by Ross Wheeler,2013-01-30 10:46:00,
2013-01-30 05:56:00,65.5,63.0,29.94,SSW,211,0.0,3.0,92,0.00,,,0.00,0.0,oem by Ross Wheeler,2013-01-30 10:56:00,
2013-01-30 06:01:00,65.4,63.0,29.94,NE,44,1.0,3.0,92,0.00,,,0.00,0.0,oem by Ross Wheeler,2013-01-30 11:01:00,
2013-01-30 06:11:00,65.4,63.0,29.94,SE,129,2.0,3.0,92,0.00,,,0.00,0.0,oem by Ross Wheeler,2013-01-30 11:11:00,
2013-01-30 06:16:00,65.4,63.0,29.94,SSW,213,0.0,4.0,92,0.00,,,0.00,0.0,oem by Ross Wheeler,2013-01-30 11:16:00,
2013-01-30 06:26:00,65.5,63.0,29.94,ENE,62,1.0,6.0,92,0.00,,,0.00,0.0,oem by Ross Wheeler,2013-01-30 11:26:00,
2013-01-30 06:31:00,65.5,63.0,29.93,NNW,340,2.0,3.0,91,0.00,,,0.00,0.0,oem by Ross Wheeler,2013-01-30 11:31:00,
2013-01-30 06:41:00,65.4,63.0,29.93,South,178,1.0,6.0,92,0.00,,,0.00,0.0,oem by Ross Wheeler,2013-01-30 11:41:00,
2013-01-30 06:46:00,65.2,63.0,29.93,SSE,157,0.0,4.0,92,0.00,,,0.00,0.0,oem by Ross Wheeler,2013-01-30 11:46:00,
2013-01-30 06:56:00,65.3,63.0,29.93,South,184,3.0,4.0,92,0.00,,,0.00,0.0,oem by Ross Wheeler,2013-01-30 11:56:00,
2013-01-30 07:01:00,65.5,63.0,29.93,SSE,157,1.0,6.0,92,0.00,,,0.00,0.0,oem by Ross Wheeler,2013-01-30 12:01:00,
2013-01-30 07:11:00,65.6,63.0,29.93,South,188,0.0,5.0,92,0.00,,,0.00,0.0,oem by Ross Wheeler,2013-01-30 12:11:00,
2013-01-30 07:16:00,65.6,63.0,29.93,SSE,157,1.0,4.0,92,0.00,,,0.00,0.0,oem by Ross Wheeler,2013-01-30 12:16:00,
2013-01-30 07:26:00,65.8,64.0,29.93,ENE,57,4.0,6.0,92,0.00,,,0.00,0.0,oem by Ross Wheeler,2013-01-30 12:26:00,
2013-01-30 07:31:00,65.9,64.0,29.93,South,178,1.0,6.0,92,0.00,,,0.00,0.0,oem by Ross Wheeler,2013-01-30 12:31:00,
2013-01-30 07:41:00,66.0,64.0,29.93,ENE,57,1.0,3.0,92,0.00,,,0.00,7.0,oem by Ross Wheeler,2013-01-30 12:41:00,
2013-01-30 07:46:00,66.0,64.0,29.92,NNE,30,1.0,4.0,92,0.00,,,0.00,9.0,oem by Ross Wheeler,2013-01-30 12:46:00,
2013-01-30 07:56:00,66.2,64.0,29.93,SSE,168,1.0,5.0,91,0.00,,,0.00,11.0,oem by Ross Wheeler,2013-01-30 12:56:00,
2013-01-30 08:01:00,66.3,64.0,29.93,SW,214,1.0,5.0,91,0.00,,,0.00,12.0,oem by Ross Wheeler,2013-01-30 13:01:00,
2013-01-30 08:11:00,66.4,64.0,29.92,East,80,2.0,4.0,91,0.00,,,0.00,16.0,oem by Ross Wheeler,2013-01-30 13:11:00,
2013-01-30 08:16:00,66.6,64.0,29.92,East,99,1.0,6.0,91,0.00,,,0.00,30.0,oem by Ross Wheeler,2013-01-30 13:16:00,
2013-01-30 08:26:00,66.8,64.0,29.92,South,169,2.0,7.0,90,0.00,,,0.00,21.0,oem by Ross Wheeler,2013-01-30 13:26:00,
2013-01-30 08:31:00,66.8,64.0,29.91,East,89,0.0,7.0,90,0.00,,,0.00,23.0,oem by Ross Wheeler,2013-01-30 13:31:00,
2013-01-30 08:41:00,66.8,64.0,29.91,SE,124,5.0,5.0,91,0.00,,,0.00,16.0,oem by Ross Wheeler,2013-01-30 13:41:00,
2013-01-30 08:46:00,66.8,64.0,29.91,SSE,160,2.0,7.0,90,0.00,,,0.00,37.0,oem by Ross Wheeler,2013-01-30 13:46:00,
2013-01-30 08:56:00,67.1,64.0,29.90,SSE,156,3.0,7.0,90,0.00,,,0.00,44.0,oem by Ross Wheeler,2013-01-30 13:56:00,
2013-01-30 09:01:00,67.3,64.0,29.90,ESE,104,1.0,7.0,90,0.00,,,0.00,47.0,oem by Ross Wheeler,2013-01-30 14:01:00,
2013-01-30 09:14:00,67.6,64.0,29.91,South,175,4.0,7.0,89,0.00,,,0.00,33,weatherlink.com 1.10,2013-01-30 14:14:00,
2013-01-30 09:21:00,67.5,64.0,29.91,SSE,147,5.0,8.0,89,0.00,,,0.00,28.0,oem by Ross Wheeler,2013-01-30 14:21:00,
2013-01-30 09:26:00,67.6,64.0,29.91,SSE,148,3.0,8.0,89,0.00,,,0.00,25.0,oem by Ross Wheeler,2013-01-30 14:26:00,
2013-01-30 09:31:00,67.7,64.0,29.91,NW,314,1.0,8.0,89,0.00,,,0.00,35.0,oem by Ross Wheeler,2013-01-30 14:31:00,
2013-01-30 09:41:00,67.9,65.0,29.91,SSW,206,3.0,10.0,89,0.00,,,0.00,40.0,oem by Ross Wheeler,2013-01-30 14:41:00,
2013-01-30 09:46:00,67.9,64.0,29.92,ESE,114,3.0,5.0,88,0.00,,,0.00,35.0,oem by Ross Wheeler,2013-01-30 14:46:00,
2013-01-30 09:56:00,68.1,65.0,29.91,SSE,160,3.0,5.0,88,0.00,,,0.00,47.0,oem by Ross Wheeler,2013-01-30 14:56:00,
2013-01-30 10:01:00,68.2,65.0,29.91,SW,221,3.0,6.0,88,0.00,,,0.00,47.0,oem by Ross Wheeler,2013-01-30 15:01:00,
2013-01-30 10:11:00,68.4,64.0,29.91,South,180,1.0,8.0,87,0.00,,,0.00,33.0,oem by Ross Wheeler,2013-01-30 15:11:00,
2013-01-30 10:16:00,68.3,64.0,29.90,SSE,157,2.0,8.0,87,0.00,,,0.00,60.0,oem by Ross Wheeler,2013-01-30 15:16:00,
2013-01-30 10:26:00,68.8,65.0,29.89,NW,316,1.0,5.0,87,0.00,,,0.00,79.0,oem by Ross Wheeler,2013-01-30 15:26:00,
2013-01-30 10:31:00,69.0,65.0,29.89,North,351,1.0,5.0,86,0.00,,,0.00,141.0,oem by Ross Wheeler,2013-01-30 15:31:00,
2013-01-30 10:41:00,69.5,65.0,29.88,SSW,194,2.0,6.0,85,0.00,,,0.00,142.0,oem by Ross Wheeler,2013-01-30 15:41:00,
2013-01-30 10:46:00,69.9,65.0,29.88,South,176,2.0,8.0,84,0.00,,,0.00,221.0,oem by Ross Wheeler,2013-01-30 15:46:00,
2013-01-30 10:56:00,70.8,65.0,29.88,SW,230,2.0,10.0,83,0.00,,,0.00,141.0,oem by Ross Wheeler,2013-01-30 15:56:00,
2013-01-30 11:01:00,71.0,65.0,29.87,North,5,3.0,4.0,82,0.00,,,0.00,144.0,oem by Ross Wheeler,2013-01-30 16:01:00,
2013-01-30 11:11:00,71.1,65.0,29.87,SSE,157,2.0,5.0,81,0.00,,,0.00,200.0,oem by Ross Wheeler,2013-01-30 16:11:00,
2013-01-30 11:16:00,71.3,65.0,29.86,SW,220,2.0,7.0,80,0.00,,,0.00,155.0,oem by Ross Wheeler,2013-01-30 16:16:00,
2013-01-30 11:26:00,71.7,65.0,29.85,North,355,4.0,4.0,79,0.00,,,0.00,158.0,oem by Ross Wheeler,2013-01-30 16:26:00,
2013-01-30 11:31:00,72.0,65.0,29.85,WNW,298,2.0,8.0,78,0.00,,,0.00,185.0,oem by Ross Wheeler,2013-01-30 16:31:00,
2013-01-30 11:41:00,72.7,64.0,29.84,NNE,20,3.0,9.0,75,0.00,,,0.00,214.0,oem by Ross Wheeler,2013-01-30 16:41:00,
2013-01-30 11:46:00,73.1,65.0,29.84,SSE,167,5.0,9.0,75,0.00,,,0.00,541.0,oem by Ross Wheeler,2013-01-30 16:46:00,
2013-01-30 11:56:00,74.0,64.0,29.83,SE,126,1.0,7.0,72,0.00,,,0.00,315.0,oem by Ross Wheeler,2013-01-30 16:56:00,
2013-01-30 12:01:00,74.8,64.0,29.82,ENE,70,3.0,7.0,70,0.00,,,0.00,195.0,oem by Ross Wheeler,2013-01-30 17:01:00,
2013-01-30 12:11:00,75.0,64.0,29.82,ESE,115,2.0,8.0,68,0.00,,,0.00,144.0,oem by Ross Wheeler,2013-01-30 17:11:00,
2013-01-30 12:16:00,75.0,64.0,29.82,North,9,4.0,8.0,68,0.00,,,0.00,267.0,oem by Ross Wheeler,2013-01-30 17:16:00,
2013-01-30 12:26:00,76.7,64.0,29.80,SW,223,4.0,6.0,64,0.00,,,0.00,167.0,oem by Ross Wheeler,2013-01-30 17:26:00,
2013-01-30 12:31:00,76.5,63.0,29.80,SE,138,3.0,6.0,63,0.00,,,0.00,285.0,oem by Ross Wheeler,2013-01-30 17:31:00,
2013-01-30 12:41:00,77.3,63.0,29.79,WNW,298,3.0,13.0,61,0.00,,,0.00,418.0,oem by Ross Wheeler,2013-01-30 17:41:00,
2013-01-30 12:46:00,77.5,62.0,29.78,ENE,78,4.0,11.0,59,0.00,,,0.00,162.0,oem by Ross Wheeler,2013-01-30 17:46:00,
2013-01-30 12:56:00,76.8,62.0,29.77,East,83,7.0,10.0,61,0.00,,,0.00,169.0,oem by Ross Wheeler,2013-01-30 17:56:00,
2013-01-30 13:01:00,77.6,62.0,29.77,NNW,337,7.0,9.0,59,0.00,,,0.00,621.0,oem by Ross Wheeler,2013-01-30 18:01:00,
2013-01-30 13:11:00,78.1,62.0,29.76,SSW,199,4.0,9.0,57,0.00,,,0.00,218.0,oem by Ross Wheeler,2013-01-30 18:11:00,
2013-01-30 13:16:00,77.5,61.0,29.76,South,191,2.0,12.0,57,0.00,,,0.00,193.0,oem by Ross Wheeler,2013-01-30 18:16:00,
2013-01-30 13:26:00,77.3,61.0,29.75,South,173,3.0,8.0,57,0.00,,,0.00,186.0,oem by Ross Wheeler,2013-01-30 18:26:00,
2013-01-30 13:31:00,77.5,60.0,29.75,WSW,240,6.0,11.0,56,0.00,,,0.00,330.0,oem by Ross Wheeler,2013-01-30 18:31:00,
2013-01-30 13:41:00,78.5,60.0,29.74,SSW,204,4.0,10.0,54,0.00,,,0.00,475.0,oem by Ross Wheeler,2013-01-30 18:41:00,
2013-01-30 13:46:00,78.7,61.0,29.73,SSE,163,3.0,8.0,54,0.00,,,0.00,373.0,oem by Ross Wheeler,2013-01-30 18:46:00,
2013-01-30 13:56:00,79.5,61.0,29.72,North,360,1.0,10.0,53,0.00,,,0.00,272.0,oem by Ross Wheeler,2013-01-30 18:56:00,
2013-01-30 14:01:00,79.0,60.0,29.72,South,191,1.0,10.0,53,0.00,,,0.00,120.0,oem by Ross Wheeler,2013-01-30 19:01:00,
2013-01-30 14:11:00,77.8,60.0,29.71,SE,130,6.0,17.0,55,0.00,,,0.00,151.0,oem by Ross Wheeler,2013-01-30 19:11:00,
2013-01-30 14:16:00,77.6,60.0,29.71,South,180,1.0,11.0,55,0.00,,,0.00,234.0,oem by Ross Wheeler,2013-01-30 19:16:00,
2013-01-30 14:26:00,78.5,61.0,29.70,North,360,2.0,8.0,55,0.00,,,0.00,287.0,oem by Ross Wheeler,2013-01-30 19:26:00,
2013-01-30 14:31:00,78.6,60.0,29.69,North,5,2.0,12.0,54,0.00,,,0.00,169.0,oem by Ross Wheeler,2013-01-30 19:31:00,
2013-01-30 14:41:00,78.0,60.0,29.70,SSW,198,3.0,9.0,55,0.00,,,0.00,105.0,oem by Ross Wheeler,2013-01-30 19:41:00,
2013-01-30 14:46:00,77.9,61.0,29.69,North,360,1.0,7.0,56,0.00,,,0.00,107.0,oem by Ross Wheeler,2013-01-30 19:46:00,
2013-01-30 14:56:00,77.6,61.0,29.68,East,92,0.0,13.0,57,0.00,,,0.00,65.0,oem by Ross Wheeler,2013-01-30 19:56:00,
2013-01-30 15:01:00,77.6,61.0,29.68,SSW,202,1.0,7.0,57,0.00,,,0.00,123.0,oem by Ross Wheeler,2013-01-30 20:01:00,
2013-01-30 15:11:00,77.7,61.0,29.67,East,101,3.0,6.0,57,0.00,,,0.00,148.0,oem by Ross Wheeler,2013-01-30 20:11:00,
2013-01-30 15:16:00,77.8,61.0,29.67,NE,48,5.0,8.0,57,0.00,,,0.00,58.0,oem by Ross Wheeler,2013-01-30 20:16:00,
2013-01-30 15:26:00,77.6,62.0,29.66,SE,142,1.0,7.0,58,0.00,,,0.00,56.0,oem by Ross Wheeler,2013-01-30 20:26:00,
2013-01-30 15:31:00,77.6,62.0,29.66,East,96,1.0,10.0,58,0.00,,,0.00,137.0,oem by Ross Wheeler,2013-01-30 20:31:00,
2013-01-30 15:41:00,77.8,62.0,29.65,ENE,66,4.0,11.0,58,0.00,,,0.00,104.0,oem by Ross Wheeler,2013-01-30 20:41:00,
2013-01-30 15:46:00,77.7,62.0,29.65,North,360,4.0,11.0,58,0.00,,,0.00,76.0,oem by Ross Wheeler,2013-01-30 20:46:00,
2013-01-30 15:56:00,77.3,62.0,29.65,South,173,2.0,9.0,59,0.00,,,0.00,40.0,oem by Ross Wheeler,2013-01-30 20:56:00,
2013-01-30 16:01:00,77.2,62.0,29.65,SSE,148,3.0,7.0,59,0.00,,,0.00,83.0,oem by Ross Wheeler,2013-01-30 21:01:00,
2013-01-30 16:11:00,77.9,62.0,29.64,South,190,2.0,7.0,58,0.00,,,0.00,65.0,oem by Ross Wheeler,2013-01-30 21:11:00,
2013-01-30 16:16:00,77.6,62.0,29.63,South,169,11.0,11.0,58,0.00,,,0.00,65.0,oem by Ross Wheeler,2013-01-30 21:16:00,
2013-01-30 16:26:00,77.5,62.0,29.63,ENE,75,2.0,12.0,59,0.00,,,0.00,84.0,oem by Ross Wheeler,2013-01-30 21:26:00,
2013-01-30 16:31:00,77.3,62.0,29.63,NNE,23,4.0,7.0,60,0.00,,,0.00,44.0,oem by Ross Wheeler,2013-01-30 21:31:00,
2013-01-30 16:41:00,76.6,63.0,29.63,ESE,111,9.0,9.0,62,0.00,,,0.00,33.0,oem by Ross Wheeler,2013-01-30 21:41:00,
2013-01-30 16:46:00,75.5,63.0,29.63,NNW,332,6.0,8.0,66,0.00,,,0.00,46.0,oem by Ross Wheeler,2013-01-30 21:46:00,
2013-01-30 16:56:00,73.8,63.0,29.63,South,182,3.0,7.0,70,0.00,,,0.00,51.0,oem by Ross Wheeler,2013-01-30 21:56:00,
2013-01-30 17:01:00,73.8,63.0,29.63,ENE,57,2.0,7.0,70,0.00,,,0.00,32.0,oem by Ross Wheeler,2013-01-30 22:01:00,
2013-01-30 17:11:00,73.8,63.0,29.62,South,170,4.0,5.0,70,0.00,,,0.00,42.0,oem by Ross Wheeler,2013-01-30 22:11:00,
2013-01-30 17:16:00,74.0,63.0,29.62,SSE,158,5.0,8.0,69,0.00,,,0.00,21.0,oem by Ross Wheeler,2013-01-30 22:16:00,
2013-01-30 17:26:00,73.9,63.0,29.62,ESE,115,2.0,7.0,69,0.00,,,0.00,5.0,oem by Ross Wheeler,2013-01-30 22:26:00,
2013-01-30 17:31:00,73.9,63.0,29.60,NNE,28,5.0,7.0,69,0.00,,,0.00,5.0,oem by Ross Wheeler,2013-01-30 22:31:00,
2013-01-30 17:41:00,73.8,63.0,29.60,North,351,2.0,11.0,69,0.00,,,0.00,5.0,oem by Ross Wheeler,2013-01-30 22:41:00,
2013-01-30 17:46:00,73.7,63.0,29.59,ESE,107,4.0,8.0,70,0.00,,,0.00,0.0,oem by Ross Wheeler,2013-01-30 22:46:00,
2013-01-30 17:56:00,73.5,63.0,29.59,ESE,109,2.0,9.0,70,0.00,,,0.00,0.0,oem by Ross Wheeler,2013-01-30 22:56:00,
2013-01-30 18:01:00,73.5,63.0,29.59,SE,140,1.0,9.0,70,0.00,,,0.00,0.0,oem by Ross Wheeler,2013-01-30 23:01:00,
2013-01-30 18:11:00,73.7,63.0,29.58,SE,126,1.0,8.0,69,0.00,,,0.00,0.0,oem by Ross Wheeler,2013-01-30 23:11:00,
2013-01-30 18:16:00,73.7,63.0,29.58,SE,134,3.0,8.0,69,0.00,,,0.00,0.0,oem by Ross Wheeler,2013-01-30 23:16:00,
2013-01-30 18:26:00,73.9,63.0,29.57,SE,146,5.0,9.0,69,0.00,,,0.00,0.0,oem by Ross Wheeler,2013-01-30 23:26:00,
2013-01-30 18:31:00,74.1,63.0,29.57,NNE,33,3.0,10.0,68,0.00,,,0.00,0,weatherlink.com 1.10,2013-01-30 23:31:00,
2013-01-30 18:36:00,74.2,63.0,29.57,NNE,13,1.0,10.0,68,0.00,,,0.00,0.0,oem by Ross Wheeler,2013-01-30 23:36:00,
2013-01-30 18:46:00,74.4,63.0,29.57,SE,134,4.0,12.0,68,0.00,,,0.00,0.0,oem by Ross Wheeler,2013-01-30 23:46:00,
2013-01-30 18:56:00,74.3,63.0,29.57,SE,136,2.0,10.0,68,0.00,,,0.00,0.0,oem by Ross Wheeler,2013-01-30 23:56:00,
2013-01-30 19:01:00,74.3,63.0,29.56,SE,143,6.0,11.0,68,0.00,,,0.00,0.0,oem by Ross Wheeler,2013-01-31 00:01:00,
2013-01-30 19:11:00,74.3,63.0,29.56,East,97,5.0,11.0,69,0.00,,,0.00,0.0,oem by Ross Wheeler,2013-01-31 00:11:00,
2013-01-30 19:16:00,74.3,63.0,29.55,SW,217,3.0,15.0,69,0.00,,,0.00,0.0,oem by Ross Wheeler,2013-01-31 00:16:00,
2013-01-30 19:26:00,74.0,63.0,29.56,North,351,9.0,13.0,69,0.00,,,0.00,0.0,oem by Ross Wheeler,2013-01-31 00:26:00,
2013-01-30 19:31:00,73.9,64.0,29.56,East,94,3.0,12.0,70,0.00,,,0.00,0.0,oem by Ross Wheeler,2013-01-31 00:31:00,
2013-01-30 19:41:00,73.7,64.0,29.55,SSW,203,4.0,10.0,71,0.00,,,0.00,0.0,oem by Ross Wheeler,2013-01-31 00:41:00,
2013-01-30 19:46:00,73.7,64.0,29.55,SSW,195,6.0,12.0,71,0.00,,,0.00,0.0,oem by Ross Wheeler,2013-01-31 00:46:00,
2013-01-30 19:56:00,73.4,64.0,29.55,SE,134,2.0,10.0,72,0.00,,,0.00,0.0,oem by Ross Wheeler,2013-01-31 00:56:00,
2013-01-30 20:01:00,73.2,64.0,29.54,South,169,3.0,10.0,73,0.00,,,0.00,0.0,oem by Ross Wheeler,2013-01-31 01:01:00,
2013-01-30 20:11:00,72.2,65.0,29.54,SW,229,7.0,13.0,77,0.00,,,0.00,0.0,oem by Ross Wheeler,2013-01-31 01:11:00,
2013-01-30 20:16:00,71.5,65.0,29.54,SSW,197,1.0,14.0,79,0.01,,,0.01,0.0,oem by Ross Wheeler,2013-01-31 01:16:00,
2013-01-30 20:26:00,67.2,64.0,29.60,North,355,1.0,17.0,88,0.31,,,0.31,0.0,oem by Ross Wheeler,2013-01-31 01:26:00,
2013-01-30 20:31:00,65.2,63.0,29.60,ENE,67,3.0,15.0,91,0.35,,,0.35,0.0,oem by Ross Wheeler,2013-01-31 01:31:00,
2013-01-30 20:41:00,63.4,61.0,29.62,SE,138,4.0,19.0,90,0.40,,,0.40,0.0,oem by Ross Wheeler,2013-01-31 01:41:00,
2013-01-30 20:46:00,61.8,58.0,29.62,ESE,119,8.0,19.0,87,0.40,,,0.40,0.0,oem by Ross Wheeler,2013-01-31 01:46:00,
2013-01-30 20:56:00,59.6,56.0,29.66,NNE,29,4.0,16.0,89,0.41,,,0.41,0.0,oem by Ross Wheeler,2013-01-31 01:56:00,
2013-01-30 21:01:00,58.8,56.0,29.66,South,173,10.0,13.0,89,0.42,,,0.42,0.0,oem by Ross Wheeler,2013-01-31 02:01:00,
2013-01-30 21:11:00,57.8,55.0,29.66,SSE,161,1.0,14.0,90,0.42,,,0.42,0.0,oem by Ross Wheeler,2013-01-31 02:11:00,
2013-01-30 21:16:00,57.6,55.0,29.66,SSW,209,1.0,10.0,91,0.40,,,0.42,0.0,oem by Ross Wheeler,2013-01-31 02:16:00,
2013-01-30 21:26:00,57.1,55.0,29.68,SE,134,2.0,9.0,91,0.11,,,0.42,0.0,oem by Ross Wheeler,2013-01-31 02:26:00,
2013-01-30 21:31:00,56.7,54.0,29.67,SE,138,7.0,10.0,91,0.07,,,0.43,0,weatherlink.com 1.10,2013-01-31 02:31:00,
2013-01-30 21:36:00,56.4,54.0,29.67,ESE,105,4.0,10.0,90,0.06,,,0.44,0.0,oem by Ross Wheeler,2013-01-31 02:36:00,
2013-01-30 21:46:00,55.3,52.0,29.66,NNE,22,1.0,9.0,89,0.05,,,0.45,0,weatherlink.com 1.10,2013-01-31 02:46:00,
2013-01-30 21:56:00,54.4,52.0,29.68,SSE,153,4.0,8.0,90,0.04,,,0.45,0.0,oem by Ross Wheeler,2013-01-31 02:56:00,
2013-01-30 22:01:00,54.0,52.0,29.68,SE,130,1.0,5.0,91,0.03,,,0.45,0,weatherlink.com 1.10,2013-01-31 03:01:00,
2013-01-30 22:11:00,53.5,51.0,29.68,ENE,64,1.0,4.0,91,0.04,,,0.46,0.0,oem by Ross Wheeler,2013-01-31 03:11:00,
2013-01-30 22:16:00,53.3,51.0,29.69,SSW,210,1.0,4.0,92,0.04,,,0.46,0,weatherlink.com 1.10,2013-01-31 03:16:00,
2013-01-30 22:26:00,52.8,51.0,29.68,SSW,212,2.0,3.0,92,0.04,,,0.46,0.0,oem by Ross Wheeler,2013-01-31 03:26:00,
2013-01-30 22:31:00,52.4,51.0,29.69,SSE,155,1.0,3.0,93,0.03,,,0.47,0,weatherlink.com 1.10,2013-01-31 03:31:00,
2013-01-30 22:41:00,52.0,50.0,29.70,ESE,111,1.0,4.0,92,0.04,,,0.48,0.0,oem by Ross Wheeler,2013-01-31 03:41:00,
2013-01-30 22:46:00,51.8,50.0,29.70,ESE,115,1.0,4.0,93,0.03,,,0.48,0,weatherlink.com 1.10,2013-01-31 03:46:00,
2013-01-30 22:56:00,51.6,49.0,29.70,ENE,58,3.0,7.0,91,0.03,,,0.48,0.0,oem by Ross Wheeler,2013-01-31 03:56:00,
2013-01-30 23:01:00,51.6,49.0,29.70,NNE,28,1.0,5.0,89,0.02,,,0.48,0.0,oem by Ross Wheeler,2013-01-31 04:01:00,
2013-01-30 23:11:00,51.5,48.0,29.70,East,80,2.0,5.0,88,0.02,,,0.48,0.0,oem by Ross Wheeler,2013-01-31 04:11:00,
2013-01-30 23:16:00,51.4,48.0,29.71,South,169,1.0,5.0,88,0.02,,,0.48,0,weatherlink.com 1.10,2013-01-31 04:16:00,
2013-01-30 23:26:00,51.4,48.0,29.71,ESE,105,0.0,3.0,87,0.02,,,0.48,0.0,oem by Ross Wheeler,2013-01-31 04:26:00,
2013-01-30 23:31:00,51.4,49.0,29.71,ESE,119,1.0,3.0,90,0.01,,,0.48,0,weatherlink.com 1.10,2013-01-31 04:31:00,
2013-01-30 23:41:00,51.4,49.0,29.71,ESE,120,1.0,8.0,90,0.00,,,0.48,0.0,oem by Ross Wheeler,2013-01-31 04:41:00,
2013-01-30 23:46:00,51.6,49.0,29.71,East,99,1.0,8.0,89,0.00,,,0.48,0,weatherlink.com 1.10,2013-01-31 04:46:00,
2013-01-30 23:56:00,52.0,48.0,29.70,South,184,3.0,4.0,87,0.00,,,0.48,0.0,oem by Ross Wheeler,2013-01-31 04:56:00,